Record,Date/Time,10,Tamb(K),Rh(%),Pres(mb),Rain,Vint(cm),Lqint(mm), 0.00, 0.10, 0.20, 0.30, 0.40, 0.50, 0.60, 0.70, 0.80, 0.90, 1.00, 1.25, 1.50, 1.75, 2.00, 2.25, 2.50, 2.75, 3.00, 3.25, 3.50, 3.75, 4.00, 4.25, 4.50, 4.75, 5.00, 5.25, 5.50, 5.75, 6.00, 6.25, 6.50, 6.75, 7.00, 7.25, 7.50, 7.75, 8.00, 8.25, 8.50, 8.75, 9.00, 9.25, 9.50, 9.75,10.00
     1,10/05/05 01:18:13,13,294.7, 80.1,1011.3,N, 4.49, 0.10,15.22,14.42,14.17,14.06,13.89,13.65,13.52,13.15,12.91,12.67,12.33,11.35,10.77,10.18, 9.55, 8.25, 7.39, 6.52, 5.77, 5.25, 4.58, 4.17, 3.73, 3.47, 3.03, 2.74, 2.38, 2.08, 1.79, 1.58, 1.37, 1.12, 0.94, 0.75, 0.66, 0.56, 0.53, 0.44, 0.34, 0.26, 0.20, 0.15, 0.11, 0.09, 0.08, 0.06, 0.06
     2,10/05/05 01:19:14,13,294.7, 79.9,1011.2,N, 4.31, 0.11,15.15,13.34,12.94,12.75,12.45,12.14,11.98,11.57,11.23,10.96,10.67, 9.96, 9.59, 9.02, 8.39, 7.57, 6.78, 6.10, 5.54, 5.24, 4.87, 4.61, 4.42, 4.38, 4.18, 3.85, 3.42, 3.03, 2.65, 2.32, 2.01, 1.60, 1.31, 1.01, 0.87, 0.72, 0.64, 0.50, 0.37, 0.28, 0.21, 0.14, 0.11, 0.09, 0.08, 0.06, 0.06
     3,10/05/05 01:20:14,13,294.7, 81.0,1011.3,N, 4.26, 0.00,15.37,13.08,12.63,12.41,12.09,11.74,11.56,11.12,10.72,10.45,10.11, 9.39, 8.90, 8.53, 8.42, 7.94, 7.55, 7.16, 6.63, 6.25, 5.91, 5.43, 5.18, 4.89, 4.45, 4.05, 3.56, 3.12, 2.83, 2.55, 2.13, 1.78, 1.43, 1.12, 0.95, 0.78, 0.71, 0.56, 0.38, 0.29, 0.21, 0.14, 0.11, 0.09, 0.08, 0.06, 0.06
     4,10/05/05 01:21:14,13,294.6, 80.3,1011.6,N, 4.37, 0.11,15.12,13.79,13.49,13.33,13.10,12.84,12.69,12.32,12.03,11.76,11.42,10.60,10.18, 9.62, 9.08, 8.16, 7.39, 6.65, 5.94, 5.45, 4.81, 4.40, 4.02, 3.76, 3.35, 3.03, 2.66, 2.32, 2.01, 1.76, 1.53, 1.24, 1.03, 0.81, 0.72, 0.60, 0.55, 0.45, 0.34, 0.26, 0.20, 0.14, 0.11, 0.09, 0.08, 0.06, 0.06
     5,10/05/05 01:22:14,13,294.5, 80.8,1011.4,N, 4.46, 0.23,15.14,14.23,13.98,13.84,13.63,13.40,13.26,12.89,12.62,12.35,12.01,11.09,10.64, 9.99, 9.36, 8.29, 7.44, 6.62, 5.89, 5.37, 4.67, 4.26, 3.82, 3.57, 3.17, 2.87, 2.52, 2.20, 1.88, 1.65, 1.43, 1.15, 0.96, 0.77, 0.68, 0.57, 0.53, 0.44, 0.34, 0.26, 0.20, 0.15, 0.11, 0.09, 0.08, 0.06, 0.05
     6,10/05/05 01:23:14,13,294.5, 81.0,1011.4,N, 4.56, 0.23,15.19,14.87,14.72,14.64,14.51,14.34,14.22,13.85,13.63,13.34,12.96,11.79,11.25,10.47, 9.84, 8.58, 7.72, 6.86, 6.03, 5.43, 4.57, 4.10, 3.55, 3.22, 2.75, 2.47, 2.15, 1.86, 1.58, 1.39, 1.21, 0.98, 0.83, 0.67, 0.60, 0.51, 0.49, 0.41, 0.33, 0.26, 0.20, 0.15, 0.11, 0.09, 0.08, 0.06, 0.05
     7,10/05/05 01:24:14,13,294.7, 82.3,1011.3,N, 4.54, 0.18,15.57,15.00,14.75,14.62,14.44,14.21,14.06,13.65,13.40,13.12,12.76,11.66,11.04,10.24, 9.51, 8.17, 7.29, 6.45, 5.73, 5.22, 4.55, 4.14, 3.69, 3.44, 3.02, 2.75, 2.40, 2.09, 1.79, 1.56, 1.36, 1.10, 0.92, 0.74, 0.65, 0.55, 0.52, 0.42, 0.33, 0.26, 0.20, 0.14, 0.11, 0.09, 0.08, 0.06, 0.05
     8,10/05/05 01:26:15,13,294.5, 81.1,1011.5,N, 4.39, 0.25,15.21,14.09,13.77,13.60,13.34,13.07,12.90,12.50,12.19,11.94,11.63,10.75,10.27, 9.58, 8.82, 7.76, 6.90, 6.11, 5.51, 5.12, 4.59, 4.28, 3.96, 3.85, 3.58, 3.29, 2.91, 2.57, 2.21, 1.91, 1.66, 1.32, 1.09, 0.86, 0.75, 0.63, 0.56, 0.46, 0.35, 0.27, 0.20, 0.15, 0.11, 0.09, 0.08, 0.06, 0.05
     9,10/05/05 01:27:14,13,294.4, 81.4,1011.3,N, 4.60, 0.21,15.20,15.41,15.31,15.27,15.20,15.07,14.95,14.58,14.41,14.16,13.76,12.41,11.68,10.83,10.10, 8.51, 7.62, 6.67, 5.84, 5.21, 4.32, 3.86, 3.27, 2.92, 2.43, 2.18, 1.89, 1.63, 1.38, 1.21, 1.06, 0.87, 0.74, 0.61, 0.55, 0.47, 0.46, 0.39, 0.33, 0.25, 0.19, 0.15, 0.11, 0.09, 0.08, 0.06, 0.05
    10,10/05/05 01:28:14,13,294.5, 80.4,1011.6,N, 4.45, 0.20,15.06,14.61,14.41,14.31,14.16,13.96,13.82,13.44,13.21,12.96,12.62,11.51,10.89,10.14, 9.38, 8.04, 7.17, 6.30, 5.59, 5.09, 4.37, 4.00, 3.54, 3.29, 2.88, 2.62, 2.29, 2.00, 1.70, 1.48, 1.30, 1.05, 0.88, 0.71, 0.63, 0.53, 0.50, 0.42, 0.33, 0.25, 0.20, 0.15, 0.11, 0.09, 0.08, 0.06, 0.05
    11,10/05/05 01:29:14,13,294.5, 81.0,1011.3,N, 4.47, 0.18,15.17,14.84,14.65,14.55,14.41,14.22,14.08,13.68,13.46,13.19,12.84,11.65,11.00,10.17, 9.41, 8.03, 7.16, 6.31, 5.59, 5.08, 4.36, 3.98, 3.51, 3.25, 2.83, 2.57, 2.25, 1.96, 1.67, 1.45, 1.27, 1.03, 0.87, 0.70, 0.62, 0.53, 0.49, 0.41, 0.33, 0.25, 0.19, 0.14, 0.11, 0.09, 0.08, 0.06, 0.05
    12,10/05/05 01:30:14,13,294.4, 80.9,1011.5,N, 4.49, 0.12,15.06,14.75,14.57,14.49,14.36,14.17,14.04,13.69,13.49,13.27,12.90,11.79,11.11,10.45, 9.78, 8.32, 7.46, 6.53, 5.75, 5.16, 4.37, 3.94, 3.42, 3.09, 2.61, 2.34, 2.03, 1.76, 1.51, 1.32, 1.15, 0.94, 0.81, 0.65, 0.59, 0.50, 0.48, 0.41, 0.33, 0.25, 0.19, 0.14, 0.11, 0.09, 0.08, 0.07, 0.06
    13,10/05/05 01:31:14,13,294.5, 82.5,1011.4,N, 4.49, 0.22,15.48,14.98,14.75,14.61,14.43,14.21,14.05,13.65,13.39,13.10,12.74,11.61,11.00,10.14, 9.40, 8.12, 7.26, 6.44, 5.73, 5.21, 4.49, 4.08, 3.60, 3.33, 2.92, 2.65, 2.32, 2.02, 1.71, 1.49, 1.30, 1.05, 0.88, 0.71, 0.62, 0.53, 0.49, 0.41, 0.32, 0.25, 0.19, 0.14, 0.11, 0.09, 0.08, 0.06, 0.05
    14,10/05/05 01:32:14,13,294.3, 81.9,1011.4,N, 4.42, 0.17,15.20,14.24,13.95,13.78,13.56,13.30,13.13,12.76,12.48,12.24,11.92,11.02,10.48, 9.83, 9.12, 7.91, 7.05, 6.20, 5.55, 5.10, 4.53, 4.19, 3.81, 3.62, 3.26, 2.97, 2.62, 2.29, 1.98, 1.72, 1.49, 1.20, 1.01, 0.80, 0.71, 0.60, 0.54, 0.45, 0.34, 0.26, 0.20, 0.14, 0.11, 0.09, 0.08, 0.06, 0.05
    15,10/05/05 01:33:14,13,294.5, 83.4,1011.6,N, 4.47, 0.15,15.60,14.99,14.72,14.56,14.35,14.10,13.92,13.51,13.26,13.00,12.65,11.58,10.90,10.08, 9.29, 7.89, 7.02, 6.17, 5.51, 5.03, 4.41, 4.04, 3.61, 3.37, 2.96, 2.70, 2.37, 2.06, 1.76, 1.53, 1.33, 1.08, 0.90, 0.73, 0.64, 0.54, 0.50, 0.42, 0.32, 0.25, 0.19, 0.14, 0.11, 0.09, 0.08, 0.06, 0.05
    16,10/05/05 01:34:14,13,294.4, 82.1,1011.6,N, 4.36, 0.18,15.29,14.13,13.80,13.61,13.34,13.06,12.88,12.49,12.18,11.93,11.62,10.76,10.24, 9.55, 8.80, 7.69, 6.85, 6.05, 5.46, 5.05, 4.53, 4.22, 3.89, 3.74, 3.43, 3.14, 2.78, 2.44, 2.09, 1.82, 1.58, 1.26, 1.05, 0.83, 0.73, 0.61, 0.55, 0.45, 0.34, 0.26, 0.20, 0.14, 0.11, 0.09, 0.08, 0.06, 0.05
    17,10/05/05 01:35:14,13,294.3, 82.0,1011.5,N, 4.45, 0.08,15.20,14.85,14.66,14.56,14.42,14.24,14.10,13.70,13.49,13.22,12.82,11.61,10.93,10.13, 9.52, 8.20, 7.43, 6.61, 5.86, 5.28, 4.49, 4.04, 3.52, 3.16, 2.66, 2.39, 2.08, 1.80, 1.54, 1.35, 1.18, 0.97, 0.82, 0.66, 0.59, 0.50, 0.48, 0.40, 0.33, 0.25, 0.19, 0.14, 0.11, 0.09, 0.08, 0.06, 0.05
    18,10/05/05 01:36:14,13,294.3, 81.9,1011.5,N, 4.37, 0.09,15.15,14.12,13.82,13.66,13.44,13.18,13.02,12.62,12.35,12.10,11.76,10.83,10.26, 9.59, 8.94, 7.79, 7.00, 6.21, 5.58, 5.15, 4.60, 4.26, 3.89, 3.67, 3.29, 3.00, 2.64, 2.31, 2.00, 1.75, 1.52, 1.23, 1.03, 0.82, 0.72, 0.60, 0.55, 0.45, 0.35, 0.26, 0.20, 0.14, 0.11, 0.09, 0.08, 0.06, 0.06
    19,10/05/05 01:37:14,13,294.4, 83.0,1011.5,N, 4.37, 0.16,15.47,14.32,13.97,13.76,13.48,13.19,12.98,12.61,12.30,12.06,11.75,10.92,10.34, 9.68, 8.90, 7.69, 6.83, 6.00, 5.41, 4.98, 4.47, 4.15, 3.80, 3.63, 3.30, 3.01, 2.67, 2.33, 2.00, 1.73, 1.50, 1.21, 1.01, 0.80, 0.70, 0.59, 0.53, 0.44, 0.33, 0.26, 0.19, 0.14, 0.11, 0.09, 0.08, 0.06, 0.05
    20,10/05/05 01:38:14,13,294.2, 82.0,1011.4,N, 4.36, 0.12,15.10,13.80,13.50,13.32,13.08,12.81,12.66,12.30,12.01,11.75,11.40,10.62,10.19, 9.65, 9.14, 8.22, 7.47, 6.70, 5.99, 5.47, 4.81, 4.38, 3.97, 3.67, 3.23, 2.91, 2.56, 2.22, 1.92, 1.69, 1.46, 1.19, 0.99, 0.79, 0.70, 0.59, 0.54, 0.44, 0.34, 0.26, 0.20, 0.14, 0.11, 0.09, 0.08, 0.06, 0.06
    21,10/05/05 01:39:14,13,294.3, 82.1,1011.6,N, 4.42, 0.11,15.19,14.62,14.38,14.25,14.07,13.84,13.68,13.31,13.08,12.85,12.49,11.46,10.78,10.08, 9.36, 7.98, 7.14, 6.26, 5.57, 5.05, 4.37, 3.99, 3.53, 3.25, 2.80, 2.53, 2.22, 1.92, 1.65, 1.44, 1.26, 1.02, 0.87, 0.70, 0.62, 0.53, 0.50, 0.41, 0.33, 0.25, 0.19, 0.14, 0.11, 0.09, 0.08, 0.06, 0.05
    22,10/05/05 01:40:14,13,294.1, 81.2,1011.6,N, 4.39, 0.00,14.92,14.17,13.92,13.82,13.67,13.44,13.31,12.91,12.68,12.46,12.07,10.97,10.28, 9.72, 9.37, 8.24, 7.65, 6.92, 6.20, 5.64, 4.91, 4.43, 3.92, 3.51, 2.95, 2.65, 2.30, 1.99, 1.76, 1.57, 1.34, 1.12, 0.94, 0.76, 0.67, 0.57, 0.55, 0.45, 0.35, 0.26, 0.20, 0.14, 0.11, 0.09, 0.08, 0.07, 0.06
    23,10/05/05 01:41:14,13,294.3, 81.0,1011.6,N, 4.43, 0.14,14.97,14.80,14.62,14.54,14.42,14.24,14.10,13.72,13.52,13.28,12.92,11.70,10.98,10.17, 9.40, 7.94, 7.09, 6.20, 5.50, 4.98, 4.24, 3.87, 3.39, 3.09, 2.65, 2.40, 2.09, 1.82, 1.55, 1.35, 1.19, 0.97, 0.82, 0.66, 0.59, 0.50, 0.48, 0.40, 0.33, 0.25, 0.19, 0.14, 0.11, 0.09, 0.08, 0.06, 0.06
    24,10/05/05 01:42:14,13,294.3, 81.2,1011.5,N, 4.38, 0.00,15.05,14.28,14.03,13.91,13.74,13.51,13.37,12.97,12.74,12.50,12.13,11.07,10.39, 9.78, 9.28, 8.08, 7.39, 6.61, 5.92, 5.38, 4.69, 4.26, 3.78, 3.42, 2.91, 2.62, 2.28, 1.98, 1.72, 1.53, 1.32, 1.09, 0.92, 0.74, 0.66, 0.55, 0.53, 0.44, 0.34, 0.26, 0.19, 0.14, 0.11, 0.09, 0.08, 0.07, 0.06
    25,10/05/05 01:43:14,13,294.2, 81.1,1011.7,N, 4.46, 0.11,14.97,14.77,14.60,14.54,14.42,14.25,14.13,13.75,13.56,13.32,12.93,11.72,11.03,10.27, 9.62, 8.21, 7.40, 6.52, 5.76, 5.19, 4.39, 3.97, 3.45, 3.11, 2.62, 2.36, 2.05, 1.77, 1.52, 1.34, 1.17, 0.96, 0.81, 0.66, 0.59, 0.50, 0.48, 0.40, 0.33, 0.25, 0.19, 0.15, 0.11, 0.09, 0.08, 0.07, 0.06
    26,10/05/05 01:44:14,13,294.2, 83.0,1011.5,N, 4.44, 0.18,15.26,14.90,14.69,14.57,14.40,14.19,14.03,13.66,13.43,13.16,12.79,11.66,11.01,10.19, 9.48, 8.13, 7.30, 6.43, 5.71, 5.14, 4.36, 3.94, 3.43, 3.11, 2.65, 2.39, 2.09, 1.80, 1.53, 1.33, 1.16, 0.95, 0.80, 0.65, 0.58, 0.50, 0.47, 0.39, 0.32, 0.24, 0.19, 0.14, 0.11, 0.09, 0.08, 0.06, 0.05
    27,10/05/05 01:45:14,13,294.1, 82.3,1011.6,N, 4.29, 0.15,15.11,13.84,13.50,13.30,13.02,12.75,12.56,12.16,11.85,11.59,11.28,10.43, 9.92, 9.21, 8.47, 7.43, 6.63, 5.89, 5.34, 5.00, 4.54, 4.27, 3.99, 3.85, 3.57, 3.29, 2.92, 2.57, 2.22, 1.93, 1.68, 1.34, 1.11, 0.88, 0.76, 0.64, 0.56, 0.46, 0.34, 0.26, 0.20, 0.14, 0.11, 0.09, 0.08, 0.06, 0.06
    28,10/05/05 01:46:14,13,294.1, 82.7,1011.7,N, 4.31, 0.13,15.12,13.74,13.41,13.22,12.94,12.67,12.50,12.09,11.78,11.50,11.17,10.32, 9.88, 9.19, 8.58, 7.68, 6.95, 6.24, 5.65, 5.28, 4.77, 4.45, 4.13, 3.94, 3.61, 3.31, 2.93, 2.57, 2.23, 1.95, 1.69, 1.37, 1.13, 0.89, 0.77, 0.65, 0.57, 0.46, 0.35, 0.27, 0.20, 0.14, 0.11, 0.09, 0.08, 0.06, 0.06
    29,10/05/05 01:47:14,13,294.1, 82.5,1011.5,N, 4.39, 0.15,15.08,14.60,14.38,14.26,14.08,13.88,13.73,13.32,13.09,12.82,12.46,11.33,10.69, 9.86, 9.13, 7.83, 7.02, 6.20, 5.53, 5.06, 4.38, 4.02, 3.57, 3.29, 2.87, 2.62, 2.30, 2.00, 1.71, 1.49, 1.30, 1.06, 0.89, 0.72, 0.63, 0.54, 0.50, 0.41, 0.33, 0.25, 0.19, 0.14, 0.11, 0.09, 0.08, 0.06, 0.05
    30,10/05/05 01:48:14,13,294.2, 82.1,1011.8,N, 4.35, 0.03,15.08,13.79,13.48,13.33,13.10,12.84,12.70,12.29,12.00,11.71,11.34,10.41, 9.93, 9.32, 8.96, 8.15, 7.56, 6.93, 6.23, 5.76, 5.11, 4.65, 4.24, 3.89, 3.41, 3.09, 2.71, 2.35, 2.07, 1.83, 1.58, 1.30, 1.07, 0.85, 0.74, 0.62, 0.58, 0.47, 0.35, 0.27, 0.20, 0.14, 0.11, 0.09, 0.08, 0.06, 0.06
    31,10/05/05 01:49:14,13,294.2, 82.4,1011.7,N, 4.33, 0.00,15.21,13.96,13.64,13.47,13.24,12.97,12.80,12.38,12.09,11.84,11.46,10.51, 9.88, 9.32, 8.98, 8.04, 7.49, 6.85, 6.20, 5.69, 5.08, 4.61, 4.17, 3.79, 3.26, 2.94, 2.58, 2.23, 1.97, 1.75, 1.49, 1.25, 1.03, 0.83, 0.72, 0.60, 0.57, 0.46, 0.35, 0.26, 0.20, 0.14, 0.11, 0.09, 0.08, 0.06, 0.05
    32,10/05/05 01:50:14,13,294.2, 81.7,1011.7,N, 4.32, 0.01,15.03,13.86,13.57,13.42,13.21,12.96,12.81,12.40,12.12,11.85,11.47,10.51, 9.96, 9.37, 9.01, 8.13, 7.55, 6.90, 6.21, 5.69, 5.00, 4.53, 4.08, 3.70, 3.19, 2.88, 2.52, 2.18, 1.91, 1.69, 1.45, 1.21, 1.00, 0.80, 0.70, 0.59, 0.55, 0.45, 0.34, 0.26, 0.20, 0.14, 0.11, 0.09, 0.08, 0.06, 0.06
    33,10/05/05 01:51:14,13,294.2, 82.4,1011.8,N, 4.49, 0.09,15.18,15.48,15.34,15.28,15.20,15.05,14.91,14.52,14.38,14.16,13.77,12.40,11.50,10.62, 9.82, 8.07, 7.19, 6.23, 5.49, 4.89, 4.08, 3.68, 3.13, 2.78, 2.28, 2.06, 1.78, 1.53, 1.30, 1.14, 1.00, 0.82, 0.71, 0.58, 0.53, 0.45, 0.44, 0.37, 0.31, 0.24, 0.19, 0.14, 0.11, 0.09, 0.08, 0.06, 0.05
    34,10/05/05 01:52:14,13,294.1, 82.6,1011.7,N, 4.27, 0.17,15.11,13.85,13.52,13.31,13.03,12.75,12.56,12.16,11.85,11.59,11.28,10.44, 9.94, 9.21, 8.46, 7.44, 6.65, 5.90, 5.36, 5.00, 4.51, 4.23, 3.93, 3.78, 3.49, 3.21, 2.86, 2.51, 2.15, 1.87, 1.63, 1.30, 1.08, 0.85, 0.74, 0.62, 0.55, 0.45, 0.34, 0.26, 0.20, 0.14, 0.11, 0.09, 0.08, 0.06, 0.05
    35,10/05/05 01:53:14,13,294.1, 82.8,1011.8,N, 4.30, 0.26,15.14,13.92,13.59,13.38,13.09,12.82,12.62,12.25,11.92,11.66,11.34,10.54,10.09, 9.40, 8.69, 7.74, 6.94, 6.18, 5.58, 5.16, 4.58, 4.24, 3.89, 3.70, 3.39, 3.10, 2.76, 2.41, 2.06, 1.78, 1.54, 1.23, 1.02, 0.81, 0.72, 0.60, 0.53, 0.43, 0.33, 0.26, 0.19, 0.14, 0.11, 0.09, 0.08, 0.06, 0.05
    36,10/05/05 01:54:14,13,294.2, 83.8,1011.7,N, 4.36, 0.22,15.43,14.71,14.42,14.23,13.98,13.73,13.52,13.13,12.85,12.58,12.24,11.24,10.61, 9.77, 8.96, 7.71, 6.87, 6.06, 5.45, 4.97, 4.33, 3.98, 3.55, 3.31, 2.94, 2.68, 2.38, 2.06, 1.74, 1.50, 1.31, 1.05, 0.88, 0.71, 0.63, 0.53, 0.48, 0.40, 0.31, 0.24, 0.19, 0.14, 0.11, 0.09, 0.08, 0.06, 0.05
    37,10/05/05 01:55:14,13,294.0, 82.2,1011.7,N, 4.46, 0.16,15.00,14.66,14.47,14.37,14.22,14.03,13.89,13.52,13.31,13.07,12.70,11.58,10.94,10.19, 9.50, 8.12, 7.29, 6.39, 5.66, 5.14, 4.40, 4.01, 3.51, 3.21, 2.75, 2.49, 2.18, 1.89, 1.62, 1.42, 1.24, 1.01, 0.85, 0.69, 0.62, 0.52, 0.50, 0.41, 0.34, 0.25, 0.20, 0.15, 0.11, 0.09, 0.08, 0.07, 0.06
    38,10/05/05 01:56:14,13,294.4, 83.8,1011.6,N, 4.34, 0.19,15.58,14.58,14.24,14.03,13.75,13.46,13.24,12.83,12.52,12.25,11.93,11.00,10.38, 9.56, 8.72, 7.51, 6.67, 5.88, 5.32, 4.91, 4.39, 4.07, 3.72, 3.54, 3.22, 2.95, 2.62, 2.28, 1.94, 1.67, 1.46, 1.17, 0.97, 0.77, 0.68, 0.57, 0.51, 0.42, 0.32, 0.25, 0.19, 0.14, 0.11, 0.09, 0.08, 0.06, 0.05
    39,10/05/05 01:57:14,13,294.4, 83.9,1011.8,N, 4.35, 0.15,15.58,14.66,14.34,14.15,13.88,13.62,13.41,12.98,12.69,12.39,12.05,11.02,10.41, 9.52, 8.73, 7.54, 6.73, 5.97, 5.40, 4.99, 4.44, 4.12, 3.75, 3.53, 3.18, 2.92, 2.59, 2.25, 1.91, 1.66, 1.45, 1.17, 0.97, 0.77, 0.67, 0.57, 0.51, 0.42, 0.32, 0.25, 0.19, 0.14, 0.10, 0.09, 0.08, 0.06, 0.05
    40,10/05/05 01:58:14,13,294.2, 82.0,1011.8,N, 4.29, 0.15,15.09,13.82,13.48,13.28,13.01,12.73,12.54,12.16,11.85,11.62,11.31,10.51, 9.98, 9.33, 8.58, 7.50, 6.68, 5.90, 5.34, 4.97, 4.50, 4.22, 3.92, 3.78, 3.48, 3.19, 2.84, 2.49, 2.15, 1.87, 1.62, 1.30, 1.08, 0.85, 0.75, 0.63, 0.56, 0.45, 0.34, 0.26, 0.20, 0.14, 0.11, 0.09, 0.08, 0.06, 0.06
    41,10/05/05 01:59:14,13,294.2, 81.3,1011.7,N, 4.44, 0.02,14.95,14.46,14.26,14.18,14.06,13.87,13.75,13.35,13.14,12.89,12.49,11.31,10.64, 9.97, 9.53, 8.31, 7.65, 6.88, 6.11, 5.53, 4.74, 4.27, 3.74, 3.33, 2.79, 2.51, 2.18, 1.88, 1.64, 1.46, 1.26, 1.05, 0.88, 0.71, 0.63, 0.54, 0.52, 0.43, 0.34, 0.26, 0.20, 0.15, 0.11, 0.09, 0.08, 0.07, 0.06
    42,10/05/05 02:00:14,13,294.2, 80.7,1011.8,N, 4.30, 0.20,14.84,13.58,13.28,13.10,12.85,12.59,12.42,12.05,11.75,11.51,11.21,10.42, 9.98, 9.37, 8.67, 7.70, 6.89, 6.11, 5.51, 5.12, 4.57, 4.27, 3.94, 3.78, 3.47, 3.18, 2.82, 2.48, 2.13, 1.86, 1.61, 1.29, 1.07, 0.85, 0.75, 0.62, 0.56, 0.45, 0.35, 0.26, 0.20, 0.14, 0.11, 0.09, 0.08, 0.06, 0.06
    43,10/05/05 02:01:14,13,294.1, 80.3,1011.7,N, 4.35, 0.11,14.75,13.78,13.55,13.43,13.25,13.03,12.90,12.55,12.30,12.04,11.67,10.77,10.32, 9.77, 9.30, 8.36, 7.64, 6.87, 6.10, 5.54, 4.75, 4.30, 3.82, 3.46, 2.97, 2.67, 2.33, 2.02, 1.74, 1.54, 1.33, 1.09, 0.92, 0.74, 0.66, 0.55, 0.52, 0.43, 0.34, 0.26, 0.20, 0.15, 0.11, 0.09, 0.08, 0.07, 0.06
    44,10/05/05 02:02:14,13,294.1, 80.3,1012.0,N, 4.45, 0.10,14.73,14.45,14.29,14.24,14.13,13.97,13.86,13.48,13.29,13.06,12.68,11.50,10.86,10.16, 9.54, 8.19, 7.40, 6.54, 5.78, 5.25, 4.46, 4.05, 3.54, 3.21, 2.72, 2.46, 2.13, 1.86, 1.60, 1.41, 1.23, 1.01, 0.86, 0.69, 0.62, 0.52, 0.50, 0.42, 0.34, 0.25, 0.20, 0.15, 0.11, 0.09, 0.08, 0.07, 0.06
    45,10/05/05 02:03:14,13,294.2, 81.4,1011.9,N, 4.32, 0.22,15.02,13.76,13.46,13.27,13.01,12.75,12.58,12.21,11.90,11.64,11.32,10.52,10.10, 9.46, 8.79, 7.85, 7.05, 6.29, 5.66, 5.22, 4.62, 4.27, 3.92, 3.72, 3.38, 3.08, 2.73, 2.39, 2.05, 1.78, 1.55, 1.24, 1.03, 0.82, 0.72, 0.60, 0.54, 0.44, 0.34, 0.26, 0.20, 0.14, 0.11, 0.09, 0.08, 0.06, 0.06
    46,10/05/05 02:04:14,13,294.2, 81.4,1011.7,N, 4.35, 0.18,14.96,14.00,13.74,13.59,13.37,13.14,12.98,12.63,12.36,12.09,11.74,10.86,10.39, 9.74, 9.13, 8.10, 7.31, 6.52, 5.81, 5.30, 4.58, 4.18, 3.74, 3.45, 3.02, 2.73, 2.40, 2.09, 1.78, 1.56, 1.35, 1.10, 0.92, 0.74, 0.66, 0.55, 0.51, 0.42, 0.33, 0.25, 0.19, 0.14, 0.11, 0.09, 0.08, 0.06, 0.06
    47,10/05/05 02:05:14,13,294.2, 81.2,1011.9,N, 4.40, 0.17,14.98,14.59,14.38,14.27,14.11,13.91,13.76,13.38,13.16,12.92,12.58,11.47,10.80,10.03, 9.25, 7.87, 7.01, 6.13, 5.46, 4.96, 4.26, 3.91, 3.45, 3.19, 2.77, 2.52, 2.21, 1.92, 1.63, 1.43, 1.25, 1.01, 0.85, 0.69, 0.61, 0.52, 0.49, 0.41, 0.33, 0.25, 0.19, 0.14, 0.11, 0.09, 0.08, 0.06, 0.05
    48,10/05/05 02:06:14,13,294.1, 81.1,1011.7,N, 4.33, 0.19,14.85,13.54,13.25,13.08,12.83,12.58,12.43,12.05,11.75,11.49,11.16,10.37, 9.99, 9.38, 8.78, 7.91, 7.14, 6.39, 5.75, 5.34, 4.75, 4.41, 4.06, 3.86, 3.52, 3.21, 2.84, 2.50, 2.16, 1.89, 1.63, 1.31, 1.09, 0.86, 0.75, 0.63, 0.57, 0.46, 0.35, 0.27, 0.20, 0.15, 0.11, 0.09, 0.08, 0.06, 0.06
    49,10/05/05 02:07:14,13,294.1, 81.0,1012.0,N, 4.38, 0.18,14.81,14.23,14.00,13.88,13.70,13.48,13.31,12.98,12.74,12.55,12.22,11.27,10.63,10.01, 9.24, 7.88, 7.01, 6.10, 5.43, 4.95, 4.28, 3.95, 3.51, 3.27, 2.86, 2.59, 2.27, 1.99, 1.70, 1.49, 1.29, 1.04, 0.89, 0.71, 0.64, 0.54, 0.50, 0.42, 0.33, 0.25, 0.20, 0.15, 0.11, 0.09, 0.08, 0.07, 0.06
    50,10/05/05 02:08:14,13,294.0, 80.8,1011.9,N, 4.30, 0.19,14.73,13.76,13.48,13.33,13.10,12.86,12.70,12.32,12.05,11.83,11.52,10.63,10.10, 9.44, 8.68, 7.56, 6.74, 5.94, 5.35, 4.97, 4.42, 4.14, 3.80, 3.63, 3.31, 3.03, 2.68, 2.37, 2.03, 1.77, 1.54, 1.23, 1.03, 0.82, 0.72, 0.60, 0.54, 0.45, 0.35, 0.26, 0.20, 0.15, 0.11, 0.09, 0.08, 0.07, 0.06
    51,10/05/05 02:09:14,13,294.2, 80.3,1012.0,N, 4.35, 0.16,14.75,13.97,13.74,13.63,13.45,13.25,13.11,12.73,12.48,12.22,11.87,10.87,10.36, 9.65, 9.01, 7.94, 7.16, 6.37, 5.69, 5.23, 4.54, 4.18, 3.76, 3.50, 3.09, 2.81, 2.46, 2.16, 1.85, 1.62, 1.42, 1.14, 0.96, 0.76, 0.67, 0.57, 0.52, 0.43, 0.34, 0.26, 0.20, 0.15, 0.11, 0.09, 0.08, 0.07, 0.06
    52,10/05/05 02:10:14,13,294.2, 81.1,1012.1,N, 4.35, 0.11,14.94,13.91,13.64,13.49,13.28,13.03,12.88,12.52,12.25,12.01,11.67,10.79,10.26, 9.66, 9.05, 7.95, 7.17, 6.36, 5.69, 5.22, 4.60, 4.23, 3.83, 3.57, 3.15, 2.86, 2.51, 2.19, 1.89, 1.67, 1.44, 1.17, 0.98, 0.78, 0.69, 0.58, 0.54, 0.44, 0.34, 0.26, 0.20, 0.14, 0.11, 0.09, 0.08, 0.06, 0.06
    53,10/05/05 02:11:14,13,294.2, 81.4,1011.9,N, 4.40, 0.07,15.03,14.05,13.79,13.66,13.47,13.23,13.10,12.72,12.46,12.20,11.83,10.88,10.36, 9.75, 9.27, 8.23, 7.52, 6.76, 6.02, 5.50, 4.80, 4.36, 3.91, 3.58, 3.09, 2.79, 2.44, 2.12, 1.84, 1.63, 1.41, 1.15, 0.96, 0.77, 0.68, 0.57, 0.54, 0.44, 0.34, 0.26, 0.20, 0.14, 0.11, 0.09, 0.08, 0.06, 0.06
    54,10/05/05 02:12:14,13,294.2, 80.5,1012.1,N, 4.39, 0.12,14.81,14.13,13.91,13.81,13.65,13.45,13.32,12.93,12.70,12.45,12.10,11.05,10.49, 9.79, 9.15, 7.98, 7.20, 6.39, 5.69, 5.22, 4.53, 4.16, 3.73, 3.45, 3.02, 2.75, 2.40, 2.10, 1.81, 1.59, 1.39, 1.13, 0.95, 0.76, 0.67, 0.56, 0.53, 0.43, 0.35, 0.26, 0.20, 0.15, 0.11, 0.09, 0.08, 0.07, 0.06
    55,10/05/05 02:13:14,13,294.2, 80.3,1012.0,N, 4.48, 0.09,14.79,14.67,14.54,14.51,14.43,14.30,14.21,13.80,13.63,13.36,12.96,11.64,11.00,10.21, 9.66, 8.35, 7.60, 6.78, 5.98, 5.42, 4.56, 4.11, 3.56, 3.19, 2.67, 2.41, 2.08, 1.81, 1.56, 1.38, 1.21, 0.99, 0.84, 0.68, 0.60, 0.51, 0.50, 0.41, 0.35, 0.25, 0.20, 0.15, 0.11, 0.09, 0.08, 0.07, 0.06
    56,10/05/05 02:14:14,13,294.2, 80.4,1012.0,N, 4.36, 0.16,14.81,13.83,13.57,13.44,13.24,13.02,12.89,12.47,12.20,11.94,11.62,10.64,10.16, 9.44, 8.76, 7.72, 6.93, 6.17, 5.54, 5.18, 4.62, 4.31, 3.97, 3.81, 3.48, 3.20, 2.82, 2.49, 2.15, 1.88, 1.64, 1.32, 1.09, 0.86, 0.75, 0.63, 0.57, 0.46, 0.36, 0.27, 0.20, 0.15, 0.11, 0.09, 0.08, 0.07, 0.06
    57,10/05/05 02:15:14,13,294.2, 80.5,1012.1,N, 4.43, 0.14,14.86,14.30,14.07,13.98,13.82,13.63,13.50,13.10,12.87,12.63,12.30,11.20,10.58, 9.85, 9.11, 7.79, 6.96, 6.11, 5.45, 5.04, 4.43, 4.11, 3.72, 3.51, 3.13, 2.87, 2.51, 2.21, 1.91, 1.67, 1.46, 1.18, 0.99, 0.79, 0.69, 0.59, 0.55, 0.45, 0.36, 0.27, 0.20, 0.15, 0.11, 0.09, 0.08, 0.07, 0.06
    58,10/05/05 02:16:14,13,294.1, 80.1,1012.0,N, 4.38, 0.13,14.72,13.97,13.73,13.62,13.45,13.23,13.10,12.72,12.49,12.27,11.95,10.96,10.39, 9.75, 9.04, 7.80, 6.98, 6.13, 5.48, 5.06, 4.46, 4.14, 3.76, 3.55, 3.16, 2.88, 2.53, 2.23, 1.93, 1.69, 1.47, 1.19, 1.00, 0.80, 0.70, 0.59, 0.55, 0.45, 0.36, 0.27, 0.20, 0.15, 0.11, 0.09, 0.08, 0.07, 0.06
    59,10/05/05 02:17:14,13,294.3, 81.3,1011.9,N, 4.50, 0.10,15.04,15.07,14.92,14.88,14.79,14.64,14.52,14.13,13.96,13.71,13.33,12.01,11.24,10.41, 9.70, 8.15, 7.32, 6.41, 5.65, 5.10, 4.31, 3.90, 3.38, 3.04, 2.56, 2.31, 2.00, 1.74, 1.49, 1.31, 1.15, 0.94, 0.80, 0.65, 0.58, 0.49, 0.48, 0.40, 0.33, 0.25, 0.19, 0.15, 0.11, 0.09, 0.08, 0.07, 0.06
    60,10/05/05 02:18:14,13,294.1, 79.7,1012.1,N, 4.40, 0.16,14.59,14.11,13.93,13.85,13.71,13.54,13.41,13.04,12.83,12.60,12.26,11.18,10.59, 9.91, 9.21, 7.93, 7.11, 6.25, 5.56, 5.11, 4.41, 4.07, 3.63, 3.38, 2.96, 2.69, 2.35, 2.07, 1.78, 1.56, 1.37, 1.10, 0.93, 0.75, 0.66, 0.56, 0.53, 0.43, 0.35, 0.26, 0.20, 0.15, 0.11, 0.09, 0.08, 0.07, 0.06
    61,10/05/05 02:19:14,13,294.1, 80.7,1012.3,N, 4.50, 0.11,14.81,14.88,14.73,14.69,14.61,14.46,14.34,13.96,13.80,13.61,13.26,11.97,11.16,10.39, 9.58, 7.90, 7.02, 6.06, 5.35, 4.88, 4.18, 3.84, 3.36, 3.09, 2.63, 2.40, 2.08, 1.83, 1.57, 1.38, 1.21, 0.98, 0.84, 0.68, 0.61, 0.52, 0.50, 0.42, 0.35, 0.26, 0.20, 0.15, 0.11, 0.09, 0.08, 0.07, 0.06
    62,10/05/05 02:20:14,13,294.2, 80.7,1012.1,N, 4.41, 0.02,14.93,14.01,13.77,13.66,13.49,13.27,13.14,12.79,12.55,12.31,11.93,10.98,10.42, 9.93, 9.58, 8.53, 7.88, 7.10, 6.30, 5.69, 4.90, 4.40, 3.88, 3.48, 2.92, 2.61, 2.27, 1.96, 1.71, 1.53, 1.31, 1.09, 0.92, 0.74, 0.66, 0.55, 0.53, 0.44, 0.34, 0.26, 0.20, 0.14, 0.11, 0.09, 0.08, 0.07, 0.06
    63,10/05/05 02:21:14,13,294.1, 80.2,1012.0,N, 4.38, 0.09,14.73,13.96,13.72,13.61,13.44,13.23,13.09,12.73,12.50,12.29,11.96,11.00,10.41, 9.83, 9.18, 7.93, 7.13, 6.27, 5.59, 5.13, 4.50, 4.15, 3.73, 3.48, 3.05, 2.76, 2.42, 2.12, 1.84, 1.62, 1.41, 1.14, 0.97, 0.77, 0.69, 0.58, 0.54, 0.45, 0.35, 0.26, 0.20, 0.15, 0.11, 0.09, 0.08, 0.07, 0.06
    64,10/05/05 02:22:14,13,294.3, 80.8,1012.1,N, 4.43, 0.09,14.94,14.21,13.97,13.87,13.70,13.49,13.37,12.97,12.73,12.48,12.13,11.08,10.49, 9.81, 9.19, 7.98, 7.21, 6.40, 5.70, 5.25, 4.61, 4.24, 3.82, 3.56, 3.13, 2.85, 2.49, 2.18, 1.89, 1.67, 1.45, 1.18, 0.99, 0.79, 0.69, 0.58, 0.55, 0.45, 0.35, 0.26, 0.20, 0.15, 0.11, 0.09, 0.08, 0.07, 0.06
    65,10/05/05 02:23:14,13,294.1, 79.9,1012.2,N, 4.42, 0.07,14.67,14.27,14.10,14.05,13.94,13.77,13.66,13.29,13.10,12.86,12.48,11.33,10.71,10.06, 9.51, 8.25, 7.51, 6.67, 5.90, 5.36, 4.55, 4.12, 3.60, 3.24, 2.73, 2.46, 2.13, 1.86, 1.60, 1.42, 1.24, 1.02, 0.86, 0.70, 0.62, 0.52, 0.51, 0.42, 0.34, 0.25, 0.20, 0.15, 0.11, 0.09, 0.08, 0.07, 0.06
    66,10/05/05 02:24:14,13,294.1, 80.4,1012.2,N, 4.45, 0.09,14.74,14.53,14.38,14.34,14.24,14.09,14.00,13.58,13.40,13.14,12.75,11.46,10.80,10.00, 9.40, 8.10, 7.36, 6.55, 5.81, 5.31, 4.53, 4.12, 3.62, 3.28, 2.79, 2.54, 2.20, 1.92, 1.66, 1.46, 1.28, 1.05, 0.88, 0.71, 0.63, 0.53, 0.51, 0.42, 0.35, 0.26, 0.20, 0.15, 0.11, 0.09, 0.08, 0.07, 0.06
    67,10/05/05 02:25:14,13,294.3, 80.8,1012.0,N, 4.35, 0.08,14.98,13.84,13.55,13.40,13.19,12.94,12.79,12.41,12.14,11.89,11.55,10.66,10.15, 9.55, 8.98, 7.95, 7.20, 6.43, 5.76, 5.31, 4.70, 4.33, 3.95, 3.69, 3.28, 2.97, 2.61, 2.28, 1.98, 1.74, 1.51, 1.23, 1.02, 0.81, 0.72, 0.60, 0.55, 0.45, 0.35, 0.26, 0.20, 0.14, 0.11, 0.09, 0.08, 0.06, 0.06
    68,10/05/05 02:26:14,13,294.3, 81.0,1012.1,N, 4.37, 0.03,15.02,14.10,13.82,13.69,13.50,13.26,13.11,12.72,12.47,12.24,11.89,10.91,10.27, 9.66, 9.07, 7.86, 7.11, 6.32, 5.67, 5.21, 4.62, 4.25, 3.85, 3.58, 3.13, 2.84, 2.48, 2.16, 1.89, 1.67, 1.44, 1.18, 0.99, 0.79, 0.70, 0.58, 0.55, 0.45, 0.35, 0.26, 0.20, 0.14, 0.11, 0.09, 0.08, 0.07, 0.06